STARLINK-2492

Last updated on Sat May 08 2021 00:02:05 GMT+0000 (Coordinated Universal Time)

1 48149U 21027BK 21127.58334491 .00018652 00000-0 13679-3 0 9999 2 48149 53.0476 191.7807 0002547 21.1269 265.3995 15.73234817 1770
UTC large
Height (km)
Speed (km/s)
/
Latitude / Longitude
Inclination (degrees)
Orbital Period (minutes)
Azimuth
Elevation
Range (km)
Doppler Factor

Next 0 passes for location: London (51.5072 / 0.1276)

Sorry there are no passes over London.